Year,Month,Day,Hour,Minute,Value (Times are PST for temperature in C)
2021,02,20,00,00,3.20
2021,02,20,00,01,3.10
2021,02,20,00,02,3.10
2021,02,20,00,03,3.10
2021,02,20,00,04,3.10
2021,02,20,00,05,3.10
2021,02,20,00,06,3.10
2021,02,20,00,07,3.10
2021,02,20,00,08,3.10
2021,02,20,00,09,3.10
2021,02,20,00,10,3.10
2021,02,20,00,11,3.10
2021,02,20,00,12,3.10
2021,02,20,00,13,3.10
2021,02,20,00,14,3.10
2021,02,20,00,15,3.10
2021,02,20,00,16,3.10
2021,02,20,00,17,3.10
2021,02,20,00,18,3.10
2021,02,20,00,19,3.00
2021,02,20,00,20,3.00
2021,02,20,00,21,3.00
2021,02,20,00,22,3.00
2021,02,20,00,23,2.90
2021,02,20,00,24,2.90
2021,02,20,00,25,2.90
2021,02,20,00,26,2.90
2021,02,20,00,27,2.90
2021,02,20,00,28,2.90
2021,02,20,00,29,2.80
2021,02,20,00,30,2.80
2021,02,20,00,31,2.80
2021,02,20,00,32,2.80
2021,02,20,00,33,2.80
2021,02,20,00,34,2.80
2021,02,20,00,35,2.70
2021,02,20,00,36,2.70
2021,02,20,00,37,2.70
2021,02,20,00,38,2.70
2021,02,20,00,39,2.70
2021,02,20,00,40,2.60
2021,02,20,00,41,2.60
2021,02,20,00,42,2.60
2021,02,20,00,43,2.60
2021,02,20,00,44,2.60
2021,02,20,00,45,2.50
2021,02,20,00,46,2.50
2021,02,20,00,47,2.50
2021,02,20,00,48,2.40
2021,02,20,00,49,2.40
2021,02,20,00,50,2.40
2021,02,20,00,51,2.40
2021,02,20,00,52,2.30
2021,02,20,00,53,2.30
2021,02,20,00,54,2.30
2021,02,20,00,55,2.30
2021,02,20,00,56,2.30
2021,02,20,00,57,2.30
2021,02,20,00,58,2.20
2021,02,20,00,59,2.20
2021,02,20,01,00,2.20
2021,02,20,01,01,2.20
2021,02,20,01,02,2.20
2021,02,20,01,03,2.10
2021,02,20,01,04,2.10
2021,02,20,01,05,2.10
2021,02,20,01,06,2.10
2021,02,20,01,07,2.10
2021,02,20,01,08,2.10
2021,02,20,01,09,2.00
2021,02,20,01,10,2.00
2021,02,20,01,11,2.00
2021,02,20,01,12,2.00
2021,02,20,01,13,2.00
2021,02,20,01,14,2.00
2021,02,20,01,15,2.00
2021,02,20,01,16,1.90
2021,02,20,01,17,1.90
2021,02,20,01,18,1.90
2021,02,20,01,19,1.90
2021,02,20,01,20,1.90
2021,02,20,01,21,1.90
2021,02,20,01,22,1.90
2021,02,20,01,23,1.90
2021,02,20,01,24,1.90
2021,02,20,01,25,1.90
2021,02,20,01,26,1.80
2021,02,20,01,27,1.90
2021,02,20,01,28,1.90
2021,02,20,01,29,1.90
2021,02,20,01,30,1.90
2021,02,20,01,31,1.90
2021,02,20,01,32,1.90
2021,02,20,01,33,1.90
2021,02,20,01,34,1.90
2021,02,20,01,35,1.90
2021,02,20,01,36,1.90
2021,02,20,01,37,1.90
2021,02,20,01,38,1.90
2021,02,20,01,39,1.80
2021,02,20,01,40,1.80
2021,02,20,01,41,1.80
2021,02,20,01,42,1.80
2021,02,20,01,43,1.80
2021,02,20,01,44,1.80
2021,02,20,01,45,1.70
2021,02,20,01,46,1.70
2021,02,20,01,47,1.70
2021,02,20,01,48,1.70
2021,02,20,01,49,1.70
2021,02,20,01,50,1.70
2021,02,20,01,51,1.70
2021,02,20,01,52,1.70
2021,02,20,01,53,1.60
2021,02,20,01,54,1.60
2021,02,20,01,55,1.60
2021,02,20,01,56,1.60
2021,02,20,01,57,1.50
2021,02,20,01,58,1.50
2021,02,20,01,59,1.50
2021,02,20,02,00,1.50
2021,02,20,02,01,1.50
2021,02,20,02,02,1.50
2021,02,20,02,03,1.50
2021,02,20,02,04,1.50
2021,02,20,02,05,1.40
2021,02,20,02,06,1.40
2021,02,20,02,07,1.40
2021,02,20,02,08,1.40
2021,02,20,02,09,1.40
2021,02,20,02,10,1.40
2021,02,20,02,11,1.40
2021,02,20,02,12,1.40
2021,02,20,02,13,1.50
2021,02,20,02,14,1.50
2021,02,20,02,15,1.50
2021,02,20,02,16,1.50
2021,02,20,02,17,1.60
2021,02,20,02,18,1.60
2021,02,20,02,19,1.60
2021,02,20,02,20,1.70
2021,02,20,02,21,1.70
2021,02,20,02,22,1.70
2021,02,20,02,23,1.70
2021,02,20,02,24,1.70
2021,02,20,02,25,1.70
2021,02,20,02,26,1.80
2021,02,20,02,27,1.80
2021,02,20,02,28,1.80
2021,02,20,02,29,1.80
2021,02,20,02,30,1.80
2021,02,20,02,31,1.90
2021,02,20,02,32,1.90
2021,02,20,02,33,1.90
2021,02,20,02,34,1.90
2021,02,20,02,35,1.90
2021,02,20,02,36,1.90
2021,02,20,02,37,1.90
2021,02,20,02,38,1.90
2021,02,20,02,39,1.90
2021,02,20,02,40,1.90
2021,02,20,02,41,1.90
2021,02,20,02,42,1.90
2021,02,20,02,43,1.90
2021,02,20,02,44,1.90
2021,02,20,02,45,1.80
2021,02,20,02,46,1.80
2021,02,20,02,47,1.80
2021,02,20,02,48,1.80
2021,02,20,02,49,1.80
2021,02,20,02,50,1.80
2021,02,20,02,51,1.90
2021,02,20,02,52,1.90
2021,02,20,02,53,1.90
2021,02,20,02,54,1.90
2021,02,20,02,55,1.90
2021,02,20,02,56,1.90
2021,02,20,02,57,1.80
2021,02,20,02,58,1.80
2021,02,20,02,59,1.80
2021,02,20,03,00,1.80
2021,02,20,03,01,1.80
2021,02,20,03,02,1.80
2021,02,20,03,03,1.80
2021,02,20,03,04,1.70
2021,02,20,03,05,1.70
2021,02,20,03,06,1.70
2021,02,20,03,07,1.70
2021,02,20,03,08,1.70
2021,02,20,03,09,1.70
2021,02,20,03,10,1.60
2021,02,20,03,11,1.60
2021,02,20,03,12,1.60
2021,02,20,03,13,1.60
2021,02,20,03,14,1.50
2021,02,20,03,15,1.50
2021,02,20,03,16,1.50
2021,02,20,03,17,1.50
2021,02,20,03,18,1.50
2021,02,20,03,19,1.40
2021,02,20,03,20,1.40
2021,02,20,03,21,1.40
2021,02,20,03,22,1.40
2021,02,20,03,23,1.40
2021,02,20,03,24,1.40
2021,02,20,03,25,1.40
2021,02,20,03,26,1.40
2021,02,20,03,27,1.40
2021,02,20,03,28,1.40
2021,02,20,03,29,1.40
2021,02,20,03,30,1.40
2021,02,20,03,31,1.30
2021,02,20,03,32,1.30
2021,02,20,03,33,1.30
2021,02,20,03,34,1.30
2021,02,20,03,35,1.30
2021,02,20,03,36,1.30
2021,02,20,03,37,1.30
2021,02,20,03,38,1.30
2021,02,20,03,39,1.30
2021,02,20,03,40,1.30
2021,02,20,03,41,1.30
2021,02,20,03,42,1.30
2021,02,20,03,43,1.30
2021,02,20,03,44,1.20
2021,02,20,03,45,1.20
2021,02,20,03,46,1.20
2021,02,20,03,47,1.20
2021,02,20,03,48,1.20
2021,02,20,03,49,1.20
2021,02,20,03,50,1.20
2021,02,20,03,51,1.20
2021,02,20,03,52,1.20
2021,02,20,03,53,1.20
2021,02,20,03,54,1.20
2021,02,20,03,55,1.20
2021,02,20,03,56,1.20
2021,02,20,03,57,1.20
2021,02,20,03,58,1.20
2021,02,20,03,59,1.20
2021,02,20,04,00,1.20
2021,02,20,04,01,1.20
2021,02,20,04,02,1.20
2021,02,20,04,03,1.20
2021,02,20,04,04,1.20
2021,02,20,04,05,1.20
2021,02,20,04,06,1.20
2021,02,20,04,07,1.10
2021,02,20,04,08,1.10
2021,02,20,04,09,1.10
2021,02,20,04,10,1.10
2021,02,20,04,11,1.20
2021,02,20,04,12,1.20
2021,02,20,04,13,1.20
2021,02,20,04,14,1.20
2021,02,20,04,15,1.20
2021,02,20,04,16,1.20
2021,02,20,04,17,1.20
2021,02,20,04,18,1.20
2021,02,20,04,19,1.20
2021,02,20,04,20,1.20
2021,02,20,04,21,1.20
2021,02,20,04,22,1.20
2021,02,20,04,23,1.20
2021,02,20,04,24,1.20
2021,02,20,04,25,1.20
2021,02,20,04,26,1.20
2021,02,20,04,27,1.20
2021,02,20,04,28,1.20
2021,02,20,04,29,1.20
2021,02,20,04,30,1.20
2021,02,20,04,31,1.20
2021,02,20,04,32,1.20
2021,02,20,04,33,1.20
2021,02,20,04,34,1.20
2021,02,20,04,35,1.20
2021,02,20,04,36,1.20
2021,02,20,04,37,1.20
2021,02,20,04,38,1.20
2021,02,20,04,39,1.20
2021,02,20,04,40,1.20
2021,02,20,04,41,1.20
2021,02,20,04,42,1.20
2021,02,20,04,43,1.20
2021,02,20,04,44,1.20
2021,02,20,04,45,1.20
2021,02,20,04,46,1.20
2021,02,20,04,47,1.20
2021,02,20,04,48,1.20
2021,02,20,04,49,1.20
2021,02,20,04,50,1.20
2021,02,20,04,51,1.30
2021,02,20,04,52,1.30
2021,02,20,04,53,1.30
2021,02,20,04,54,1.30
2021,02,20,04,55,1.30
2021,02,20,04,56,1.30
2021,02,20,04,57,1.30
2021,02,20,04,58,1.30
2021,02,20,04,59,1.30
2021,02,20,05,00,1.20
2021,02,20,05,01,1.20
2021,02,20,05,02,1.20
2021,02,20,05,03,1.20
2021,02,20,05,04,1.10
2021,02,20,05,05,1.00
2021,02,20,05,06,1.00
2021,02,20,05,07,0.90
2021,02,20,05,08,0.90
2021,02,20,05,09,0.90
2021,02,20,05,10,0.90
2021,02,20,05,11,1.00
2021,02,20,05,12,1.00
2021,02,20,05,13,1.00
2021,02,20,05,14,1.10
2021,02,20,05,15,1.10
2021,02,20,05,16,1.10
2021,02,20,05,17,1.10
2021,02,20,05,18,1.10
2021,02,20,05,19,1.20
2021,02,20,05,20,1.20
2021,02,20,05,21,1.20
2021,02,20,05,22,1.20
2021,02,20,05,23,1.20
2021,02,20,05,24,1.20
2021,02,20,05,25,1.30
2021,02,20,05,26,1.30
2021,02,20,05,27,1.30
2021,02,20,05,28,1.30
2021,02,20,05,29,1.30
2021,02,20,05,30,1.30
2021,02,20,05,31,1.30
2021,02,20,05,32,1.30
2021,02,20,05,33,1.30
2021,02,20,05,34,1.30
2021,02,20,05,35,1.30
2021,02,20,05,36,1.30
2021,02,20,05,37,1.30
2021,02,20,05,38,1.30
2021,02,20,05,39,1.20
2021,02,20,05,40,1.20
2021,02,20,05,41,1.20
2021,02,20,05,42,1.10
2021,02,20,05,43,1.10
2021,02,20,05,44,1.00
2021,02,20,05,45,0.90
2021,02,20,05,46,0.90
2021,02,20,05,47,0.80
2021,02,20,05,48,0.80
2021,02,20,05,49,0.80
2021,02,20,05,50,0.80
2021,02,20,05,51,0.80
2021,02,20,05,52,0.90
2021,02,20,05,53,0.90
2021,02,20,05,54,1.00
2021,02,20,05,55,1.00
2021,02,20,05,56,1.10
2021,02,20,05,57,1.10
2021,02,20,05,58,1.10
2021,02,20,05,59,1.20
2021,02,20,06,00,1.20
2021,02,20,06,01,1.20
2021,02,20,06,02,1.20
2021,02,20,06,03,1.20
2021,02,20,06,04,1.30
2021,02,20,06,05,1.30
2021,02,20,06,06,1.30
2021,02,20,06,07,1.30
2021,02,20,06,08,1.40
2021,02,20,06,09,1.40
2021,02,20,06,10,1.40
2021,02,20,06,11,1.40
2021,02,20,06,12,1.40
2021,02,20,06,13,1.40
2021,02,20,06,14,1.40
2021,02,20,06,15,1.40
2021,02,20,06,16,1.40
2021,02,20,06,17,1.40
2021,02,20,06,18,1.40
2021,02,20,06,19,1.40
2021,02,20,06,20,1.40
2021,02,20,06,21,1.30
2021,02,20,06,22,1.30
2021,02,20,06,23,1.30
2021,02,20,06,24,1.30
2021,02,20,06,25,1.20
2021,02,20,06,26,1.20
2021,02,20,06,27,1.20
2021,02,20,06,28,1.20
2021,02,20,06,29,1.20
2021,02,20,06,30,1.30
2021,02,20,06,31,1.30
2021,02,20,06,32,1.30
2021,02,20,06,33,1.30
2021,02,20,06,34,1.30
2021,02,20,06,35,1.30
2021,02,20,06,36,1.20
2021,02,20,06,37,1.20
2021,02,20,06,38,1.20
2021,02,20,06,39,1.10
2021,02,20,06,40,1.10
2021,02,20,06,41,1.00
2021,02,20,06,42,1.00
2021,02,20,06,43,1.00
2021,02,20,06,44,1.00
2021,02,20,06,45,1.00
2021,02,20,06,46,1.00
2021,02,20,06,47,0.90
2021,02,20,06,48,0.90
2021,02,20,06,49,0.90
2021,02,20,06,50,0.90
2021,02,20,06,51,0.80
2021,02,20,06,52,0.80
2021,02,20,06,53,0.80
2021,02,20,06,54,0.80
2021,02,20,06,55,0.70
2021,02,20,06,56,0.70
2021,02,20,06,57,0.70
2021,02,20,06,58,0.70
2021,02,20,06,59,0.60
2021,02,20,07,00,0.60
2021,02,20,07,01,0.60
2021,02,20,07,02,0.60
2021,02,20,07,03,0.50
2021,02,20,07,04,0.50
2021,02,20,07,05,0.50
2021,02,20,07,06,0.50
2021,02,20,07,07,0.50
2021,02,20,07,08,0.50
2021,02,20,07,09,0.60
2021,02,20,07,10,0.60
2021,02,20,07,11,0.70
2021,02,20,07,12,0.70
2021,02,20,07,13,0.70
2021,02,20,07,14,0.70
2021,02,20,07,15,0.70
2021,02,20,07,16,0.70
2021,02,20,07,17,0.70
2021,02,20,07,18,0.70
2021,02,20,07,19,0.70
2021,02,20,07,20,0.70
2021,02,20,07,21,0.70
2021,02,20,07,22,0.70
2021,02,20,07,23,0.70
2021,02,20,07,24,0.80
2021,02,20,07,25,0.90
2021,02,20,07,26,1.00
2021,02,20,07,27,1.00
2021,02,20,07,28,1.10
2021,02,20,07,29,1.10
2021,02,20,07,30,1.20
2021,02,20,07,31,1.30
2021,02,20,07,32,1.30
2021,02,20,07,33,1.30
2021,02,20,07,34,1.40
2021,02,20,07,35,1.40
2021,02,20,07,36,1.50
2021,02,20,07,37,1.50
2021,02,20,07,38,1.60
2021,02,20,07,39,1.60
2021,02,20,07,40,1.60
2021,02,20,07,41,1.60
2021,02,20,07,42,1.60
2021,02,20,07,43,1.60
2021,02,20,07,44,1.60
2021,02,20,07,45,1.60
2021,02,20,07,46,1.60
2021,02,20,07,47,1.60
2021,02,20,07,48,1.60
2021,02,20,07,49,1.60
2021,02,20,07,50,1.60
2021,02,20,07,51,1.60
2021,02,20,07,52,1.60
2021,02,20,07,53,1.60
2021,02,20,07,54,1.60
2021,02,20,07,55,1.60
2021,02,20,07,56,1.60
2021,02,20,07,57,1.70
2021,02,20,07,58,1.70
2021,02,20,07,59,1.70
2021,02,20,08,00,1.70
2021,02,20,08,01,1.70
2021,02,20,08,02,1.70
2021,02,20,08,03,1.70
2021,02,20,08,04,1.70
2021,02,20,08,05,1.70
2021,02,20,08,06,1.70
2021,02,20,08,07,1.70
2021,02,20,08,08,1.70
2021,02,20,08,09,1.70
2021,02,20,08,10,1.80
2021,02,20,08,11,1.80
2021,02,20,08,12,1.80
2021,02,20,08,13,1.80
2021,02,20,08,14,1.80
2021,02,20,08,15,1.80
2021,02,20,08,16,1.80
2021,02,20,08,17,1.80
2021,02,20,08,18,1.80
2021,02,20,08,19,1.80
2021,02,20,08,20,1.80
2021,02,20,08,21,1.90
2021,02,20,08,22,1.90
2021,02,20,08,23,1.90
2021,02,20,08,24,1.90
2021,02,20,08,25,1.90
2021,02,20,08,26,1.90
2021,02,20,08,27,1.90
2021,02,20,08,28,1.90
2021,02,20,08,29,1.90
2021,02,20,08,30,1.90
2021,02,20,08,31,1.90
2021,02,20,08,32,1.90
2021,02,20,08,33,1.90
2021,02,20,08,34,1.90
2021,02,20,08,35,1.90
2021,02,20,08,36,1.90
2021,02,20,08,37,1.90
2021,02,20,08,38,1.90
2021,02,20,08,39,1.90
2021,02,20,08,40,1.90
2021,02,20,08,41,1.90
2021,02,20,08,42,1.90
2021,02,20,08,43,1.90
2021,02,20,08,44,1.90
2021,02,20,08,45,1.90
2021,02,20,08,46,1.90
2021,02,20,08,47,1.90
2021,02,20,08,48,1.90
2021,02,20,08,49,2.00
2021,02,20,08,50,2.00
2021,02,20,08,51,2.00
2021,02,20,08,52,2.10
2021,02,20,08,53,2.10
2021,02,20,08,54,2.20
2021,02,20,08,55,2.20
2021,02,20,08,56,2.30
2021,02,20,08,57,2.40
2021,02,20,08,58,2.40
2021,02,20,08,59,2.50
2021,02,20,09,00,2.60
2021,02,20,09,01,2.70
2021,02,20,09,02,2.70
2021,02,20,09,03,2.80
2021,02,20,09,04,2.80
2021,02,20,09,05,2.90
2021,02,20,09,06,2.90
2021,02,20,09,07,3.00
2021,02,20,09,08,3.00
2021,02,20,09,09,3.10
2021,02,20,09,10,3.10
2021,02,20,09,11,3.20
2021,02,20,09,12,3.30
2021,02,20,09,13,3.30
2021,02,20,09,14,3.40
2021,02,20,09,15,3.40
2021,02,20,09,16,3.50
2021,02,20,09,17,3.50
2021,02,20,09,18,3.60
2021,02,20,09,19,3.60
2021,02,20,09,20,3.70
2021,02,20,09,21,3.80
2021,02,20,09,22,3.80
2021,02,20,09,23,3.90
2021,02,20,09,24,3.90
2021,02,20,09,25,4.00
2021,02,20,09,26,4.00
2021,02,20,09,27,4.10
2021,02,20,09,28,4.10
2021,02,20,09,29,4.20
2021,02,20,09,30,4.20
2021,02,20,09,31,4.20
2021,02,20,09,32,4.30
2021,02,20,09,33,4.30
2021,02,20,09,34,4.30
2021,02,20,09,35,4.30
2021,02,20,09,36,4.40
2021,02,20,09,37,4.40
2021,02,20,09,38,4.40
2021,02,20,09,39,4.50
2021,02,20,09,40,4.60
2021,02,20,09,41,4.60
2021,02,20,09,42,4.60
2021,02,20,09,43,4.70
2021,02,20,09,44,4.70
2021,02,20,09,45,4.80
2021,02,20,09,46,4.80
2021,02,20,09,47,4.90
2021,02,20,09,48,5.00
2021,02,20,09,49,5.10
2021,02,20,09,50,5.10
2021,02,20,09,51,5.20
2021,02,20,09,52,5.30
2021,02,20,09,53,5.40
2021,02,20,09,54,5.50
2021,02,20,09,55,5.50
2021,02,20,09,56,5.60
2021,02,20,09,57,5.70
2021,02,20,09,58,5.80
2021,02,20,09,59,5.90
2021,02,20,10,00,6.00
2021,02,20,10,01,6.10
2021,02,20,10,02,6.10
2021,02,20,10,03,6.10
2021,02,20,10,04,6.10
2021,02,20,10,05,6.10
2021,02,20,10,06,6.20
2021,02,20,10,07,6.20
2021,02,20,10,08,6.30
2021,02,20,10,09,6.40
2021,02,20,10,10,6.40
2021,02,20,10,11,6.40
2021,02,20,10,12,6.50
2021,02,20,10,13,6.50
2021,02,20,10,14,6.60
2021,02,20,10,15,6.70
2021,02,20,10,16,6.70
2021,02,20,10,17,6.80
2021,02,20,10,18,6.80
2021,02,20,10,19,6.80
2021,02,20,10,20,6.90
2021,02,20,10,21,6.90
2021,02,20,10,22,6.90
2021,02,20,10,23,6.90
2021,02,20,10,24,7.00
2021,02,20,10,25,7.00
2021,02,20,10,26,7.00
2021,02,20,10,27,7.10
2021,02,20,10,28,7.10
2021,02,20,10,29,7.10
2021,02,20,10,30,7.10
2021,02,20,10,31,7.20
2021,02,20,10,32,7.20
2021,02,20,10,33,7.20
2021,02,20,10,34,7.30
2021,02,20,10,35,7.30
2021,02,20,10,36,7.30
2021,02,20,10,37,7.30
2021,02,20,10,38,7.30
2021,02,20,10,39,7.40
2021,02,20,10,40,7.40
2021,02,20,10,41,7.50
2021,02,20,10,42,7.50
2021,02,20,10,43,7.60
2021,02,20,10,44,7.60
2021,02,20,10,45,7.60
2021,02,20,10,46,7.70
2021,02,20,10,47,7.70
2021,02,20,10,48,7.70
2021,02,20,10,49,7.70
2021,02,20,10,50,7.80
2021,02,20,10,51,7.80
2021,02,20,10,52,7.80
2021,02,20,10,53,7.80
2021,02,20,10,54,7.80
2021,02,20,10,55,7.80
2021,02,20,10,56,7.80
2021,02,20,10,57,7.80
2021,02,20,10,58,7.80
2021,02,20,10,59,7.80
2021,02,20,11,00,7.80
2021,02,20,11,01,7.70
2021,02,20,11,02,7.70
2021,02,20,11,03,7.70
2021,02,20,11,04,7.70
2021,02,20,11,05,7.70
2021,02,20,11,06,7.70
2021,02,20,11,07,7.70
2021,02,20,11,08,7.70
2021,02,20,11,09,7.70
2021,02,20,11,10,7.70
2021,02,20,11,11,7.70
2021,02,20,11,12,7.70
2021,02,20,11,13,7.70
2021,02,20,11,14,7.70
2021,02,20,11,15,7.70
2021,02,20,11,16,7.80
2021,02,20,11,17,7.80
2021,02,20,11,18,7.80
2021,02,20,11,19,7.80
2021,02,20,11,20,7.80
2021,02,20,11,21,7.80
2021,02,20,11,22,7.80
2021,02,20,11,23,7.80
2021,02,20,11,24,7.80
2021,02,20,11,25,7.80
2021,02,20,11,26,7.80
2021,02,20,11,27,7.80
2021,02,20,11,28,7.90
2021,02,20,11,29,7.90
2021,02,20,11,30,7.90
2021,02,20,11,31,7.90
2021,02,20,11,32,7.90
2021,02,20,11,33,7.90
2021,02,20,11,34,7.90
2021,02,20,11,35,7.90
2021,02,20,11,36,7.90
2021,02,20,11,37,7.90
2021,02,20,11,38,7.90
2021,02,20,11,39,7.90
2021,02,20,11,40,7.90
2021,02,20,11,41,7.90
2021,02,20,11,42,7.90
2021,02,20,11,43,7.90
2021,02,20,11,44,7.90
2021,02,20,11,45,7.90
2021,02,20,11,46,7.90
2021,02,20,11,47,8.00
2021,02,20,11,48,8.00
2021,02,20,11,49,8.00
2021,02,20,11,50,8.10
2021,02,20,11,51,8.10
2021,02,20,11,52,8.10
2021,02,20,11,53,8.10
2021,02,20,11,54,8.10
2021,02,20,11,55,8.20
2021,02,20,11,56,8.20
2021,02,20,11,57,8.20
2021,02,20,11,58,8.20
2021,02,20,11,59,8.30
2021,02,20,12,00,8.30
2021,02,20,12,01,8.30
2021,02,20,12,02,8.30
2021,02,20,12,03,8.40
2021,02,20,12,04,8.40
2021,02,20,12,05,8.40
2021,02,20,12,06,8.40
2021,02,20,12,07,8.50
2021,02,20,12,08,8.50
2021,02,20,12,09,8.50
2021,02,20,12,10,8.50
2021,02,20,12,11,8.60
2021,02,20,12,12,8.60
2021,02,20,12,13,8.70
2021,02,20,12,14,8.70
2021,02,20,12,15,8.70
2021,02,20,12,16,8.70
2021,02,20,12,17,8.70
2021,02,20,12,18,8.70
2021,02,20,12,19,8.80
2021,02,20,12,20,8.80
2021,02,20,12,21,8.80
2021,02,20,12,22,8.80
2021,02,20,12,23,8.80
2021,02,20,12,24,8.80
2021,02,20,12,25,8.80
2021,02,20,12,26,8.90
2021,02,20,12,27,8.90
2021,02,20,12,28,8.90
2021,02,20,12,29,8.90
2021,02,20,12,30,8.90
2021,02,20,12,31,8.90
2021,02,20,12,32,8.90
2021,02,20,12,33,8.90
2021,02,20,12,34,8.90
2021,02,20,12,35,8.90
2021,02,20,12,36,8.80
2021,02,20,12,37,8.80
2021,02,20,12,38,8.80
2021,02,20,12,39,8.80
2021,02,20,12,40,8.70
2021,02,20,12,41,8.70
2021,02,20,12,42,8.70
2021,02,20,12,43,8.70
2021,02,20,12,44,8.60
2021,02,20,12,45,8.60
2021,02,20,12,46,8.60
2021,02,20,12,47,8.60
2021,02,20,12,48,8.50
2021,02,20,12,49,8.40
2021,02,20,12,50,8.40
2021,02,20,12,51,8.40
2021,02,20,12,52,8.40
2021,02,20,12,53,8.40
2021,02,20,12,54,8.30
2021,02,20,12,55,8.30
2021,02,20,12,56,8.30
2021,02,20,12,57,8.20
2021,02,20,12,58,8.20
2021,02,20,12,59,8.20
2021,02,20,13,00,8.20
2021,02,20,13,01,8.20
2021,02,20,13,02,8.10
2021,02,20,13,03,8.10
2021,02,20,13,04,8.10
2021,02,20,13,05,8.00
2021,02,20,13,06,8.00
2021,02,20,13,07,8.00
2021,02,20,13,08,8.00
2021,02,20,13,09,7.90
2021,02,20,13,10,7.90
2021,02,20,13,11,7.90
2021,02,20,13,12,7.90
2021,02,20,13,13,7.90
2021,02,20,13,14,7.90
2021,02,20,13,15,7.90
2021,02,20,13,16,7.90
2021,02,20,13,17,7.90
2021,02,20,13,18,7.90
2021,02,20,13,19,7.90
2021,02,20,13,20,7.90
2021,02,20,13,21,7.90
2021,02,20,13,22,7.90
2021,02,20,13,23,7.90
2021,02,20,13,24,7.90
2021,02,20,13,25,7.90
2021,02,20,13,26,7.90
2021,02,20,13,27,7.90
2021,02,20,13,28,7.90
2021,02,20,13,29,7.90
2021,02,20,13,30,7.90
2021,02,20,13,31,7.90
2021,02,20,13,32,7.90
2021,02,20,13,33,7.90
2021,02,20,13,34,7.80
2021,02,20,13,35,7.90
2021,02,20,13,36,7.90
2021,02,20,13,37,7.90
2021,02,20,13,38,7.90
2021,02,20,13,39,7.80
2021,02,20,13,40,7.80
2021,02,20,13,41,7.80
2021,02,20,13,42,7.80
2021,02,20,13,43,7.80
2021,02,20,13,44,7.80
2021,02,20,13,45,7.80
2021,02,20,13,46,7.80
2021,02,20,13,47,7.80
2021,02,20,13,48,7.80
2021,02,20,13,49,7.80
2021,02,20,13,50,7.80
2021,02,20,13,51,7.80
2021,02,20,13,52,7.80
2021,02,20,13,53,7.80
2021,02,20,13,54,7.70
2021,02,20,13,55,7.70
2021,02,20,13,56,7.70
2021,02,20,13,57,7.70
2021,02,20,13,58,7.70
2021,02,20,13,59,7.70
2021,02,20,14,00,7.70
2021,02,20,14,01,7.60
2021,02,20,14,02,7.60
2021,02,20,14,03,7.60
2021,02,20,14,04,7.60
2021,02,20,14,05,7.60
2021,02,20,14,06,7.60
2021,02,20,14,07,7.60
2021,02,20,14,08,7.50
2021,02,20,14,09,7.50
2021,02,20,14,10,7.50
2021,02,20,14,11,7.50
2021,02,20,14,12,7.40
2021,02,20,14,13,7.40
2021,02,20,14,14,7.40
2021,02,20,14,15,7.40
2021,02,20,14,16,7.40
2021,02,20,14,17,7.40
2021,02,20,14,18,7.40
2021,02,20,14,19,7.30
2021,02,20,14,20,7.30
2021,02,20,14,21,7.30
2021,02,20,14,22,7.30
2021,02,20,14,23,7.30
2021,02,20,14,24,7.30
2021,02,20,14,25,7.30
2021,02,20,14,26,7.30
2021,02,20,14,27,7.30
2021,02,20,14,28,7.30
2021,02,20,14,29,7.30
2021,02,20,14,30,7.30
2021,02,20,14,31,7.30
2021,02,20,14,32,7.30
2021,02,20,14,33,7.30
2021,02,20,14,34,7.30
2021,02,20,14,35,7.30
2021,02,20,14,36,7.30
2021,02,20,14,37,7.30
2021,02,20,14,38,7.30
2021,02,20,14,39,7.30
2021,02,20,14,40,7.30
2021,02,20,14,41,7.30
2021,02,20,14,42,7.30
2021,02,20,14,43,7.30
2021,02,20,14,44,7.20
2021,02,20,14,45,7.20
2021,02,20,14,46,7.20
2021,02,20,14,47,7.20
2021,02,20,14,48,7.20
2021,02,20,14,49,7.20
2021,02,20,14,50,7.20
2021,02,20,14,51,7.20
2021,02,20,14,52,7.20
2021,02,20,14,53,7.20
2021,02,20,14,54,7.20
2021,02,20,14,55,7.20
2021,02,20,14,56,7.20
2021,02,20,14,57,7.20
2021,02,20,14,58,7.20
2021,02,20,14,59,7.20
2021,02,20,15,00,7.20
2021,02,20,15,01,7.20
2021,02,20,15,02,7.20
2021,02,20,15,03,7.20
2021,02,20,15,04,7.20
2021,02,20,15,05,7.20
2021,02,20,15,06,7.20
2021,02,20,15,07,7.20
2021,02,20,15,08,7.20
2021,02,20,15,09,7.20
2021,02,20,15,10,7.20
2021,02,20,15,11,7.20
2021,02,20,15,12,7.20
2021,02,20,15,13,7.20
2021,02,20,15,14,7.20
2021,02,20,15,15,7.20
2021,02,20,15,16,7.20
2021,02,20,15,17,7.30
2021,02,20,15,18,7.30
2021,02,20,15,19,7.30
2021,02,20,15,20,7.30
2021,02,20,15,21,7.30
2021,02,20,15,22,7.30
2021,02,20,15,23,7.40
2021,02,20,15,24,7.40
2021,02,20,15,25,7.40
2021,02,20,15,26,7.40
2021,02,20,15,27,7.40
2021,02,20,15,28,7.40
2021,02,20,15,29,7.40
2021,02,20,15,30,7.40
2021,02,20,15,31,7.40
2021,02,20,15,32,7.40
2021,02,20,15,33,7.40
2021,02,20,15,34,7.50
2021,02,20,15,35,7.50
2021,02,20,15,36,7.50
2021,02,20,15,37,7.60
2021,02,20,15,38,7.60
2021,02,20,15,39,7.50
2021,02,20,15,40,7.50
2021,02,20,15,41,7.50
2021,02,20,15,42,7.50
2021,02,20,15,43,7.50
2021,02,20,15,44,7.50
2021,02,20,15,45,7.60
2021,02,20,15,46,7.50
2021,02,20,15,47,7.50
2021,02,20,15,48,7.60
2021,02,20,15,49,7.60
2021,02,20,15,50,7.50
2021,02,20,15,51,7.50
2021,02,20,15,52,7.60
2021,02,20,15,53,7.50
2021,02,20,15,54,7.50
2021,02,20,15,55,7.50
2021,02,20,15,56,7.50
2021,02,20,15,57,7.50
2021,02,20,15,58,7.50
2021,02,20,15,59,7.50
2021,02,20,16,00,7.50
2021,02,20,16,01,7.40
2021,02,20,16,02,7.40
2021,02,20,16,03,7.40
2021,02,20,16,04,7.40
2021,02,20,16,05,7.40
2021,02,20,16,06,7.40
2021,02,20,16,07,7.30
2021,02,20,16,08,7.30
2021,02,20,16,09,7.30
2021,02,20,16,10,7.30
2021,02,20,16,11,7.30
2021,02,20,16,12,7.30
2021,02,20,16,13,7.30
2021,02,20,16,14,7.30
2021,02,20,16,15,7.30
2021,02,20,16,16,7.20
2021,02,20,16,17,7.20
2021,02,20,16,18,7.20
2021,02,20,16,19,7.20
2021,02,20,16,20,7.20
2021,02,20,16,21,7.20
2021,02,20,16,22,7.20
2021,02,20,16,23,7.20
2021,02,20,16,24,7.20
2021,02,20,16,25,7.20
2021,02,20,16,26,7.10
2021,02,20,16,27,7.10
2021,02,20,16,28,7.10
2021,02,20,16,29,7.00
2021,02,20,16,30,6.90
2021,02,20,16,31,6.90
2021,02,20,16,32,6.90
2021,02,20,16,33,6.80
2021,02,20,16,34,6.80
2021,02,20,16,35,6.80
2021,02,20,16,36,6.80
2021,02,20,16,37,6.80
2021,02,20,16,38,6.80
2021,02,20,16,39,6.80
2021,02,20,16,40,6.70
2021,02,20,16,41,6.70
2021,02,20,16,42,6.70
2021,02,20,16,43,6.70
2021,02,20,16,44,6.60
2021,02,20,16,45,6.60
2021,02,20,16,46,6.60
2021,02,20,16,47,6.60
2021,02,20,16,48,6.60
2021,02,20,16,49,6.50
2021,02,20,16,50,6.50
2021,02,20,16,51,6.50
2021,02,20,16,52,6.50
2021,02,20,16,53,6.40
2021,02,20,16,54,6.40
2021,02,20,16,55,6.40
2021,02,20,16,56,6.40
2021,02,20,16,57,6.40
2021,02,20,16,58,6.40
2021,02,20,16,59,6.40
2021,02,20,17,00,6.30
2021,02,20,17,01,6.30
2021,02,20,17,02,6.30
2021,02,20,17,03,6.30
2021,02,20,17,04,6.30
2021,02,20,17,05,6.30
2021,02,20,17,06,6.30
2021,02,20,17,07,6.30
2021,02,20,17,08,6.30
2021,02,20,17,09,6.30
2021,02,20,17,10,6.30
2021,02,20,17,11,6.30
2021,02,20,17,12,6.30
2021,02,20,17,13,6.20
2021,02,20,17,14,6.20
2021,02,20,17,15,6.20
2021,02,20,17,16,6.20
2021,02,20,17,17,6.20
2021,02,20,17,18,6.20
2021,02,20,17,19,6.10
2021,02,20,17,20,6.10
2021,02,20,17,21,6.10
2021,02,20,17,22,6.10
2021,02,20,17,23,6.10
2021,02,20,17,24,6.00
2021,02,20,17,25,6.00
2021,02,20,17,26,6.00
2021,02,20,17,27,5.90
2021,02,20,17,28,5.90
2021,02,20,17,29,5.90
2021,02,20,17,30,5.90
2021,02,20,17,31,5.80
2021,02,20,17,32,5.80
2021,02,20,17,33,5.80
2021,02,20,17,34,5.80
2021,02,20,17,35,5.80
2021,02,20,17,36,5.80
2021,02,20,17,37,5.80
2021,02,20,17,38,5.70
2021,02,20,17,39,5.70
2021,02,20,17,40,5.70
2021,02,20,17,41,5.70
2021,02,20,17,42,5.70
2021,02,20,17,43,5.70
2021,02,20,17,44,5.70
2021,02,20,17,45,5.70
2021,02,20,17,46,5.70
2021,02,20,17,47,5.60
2021,02,20,17,48,5.60
2021,02,20,17,49,5.60
2021,02,20,17,50,5.60
2021,02,20,17,51,5.60
2021,02,20,17,52,5.60
2021,02,20,17,53,5.50
2021,02,20,17,54,5.50
2021,02,20,17,55,5.50
2021,02,20,17,56,5.40
2021,02,20,17,57,5.40
2021,02,20,17,58,5.40
2021,02,20,17,59,5.40
2021,02,20,18,00,5.40
2021,02,20,18,01,5.40
2021,02,20,18,02,5.40
2021,02,20,18,03,5.40
2021,02,20,18,04,5.30
2021,02,20,18,05,5.30
2021,02,20,18,06,5.30